Volver al catálogo

STARLINK-32683

ActivoComunicacionesVLEO
NORAD 62445·PAYLOAD·🇺🇸 United States

Lanzado Dec 29, 2024 desde Vandenberg Space Force Base

Loading…

Próximos Pases (próximas 24 horas)

TLE

ActualizadoSource: CelesTrak SupGP

Época: Sep 14, 2026, 21:18 UTC

1 62445C 24251P   26257.88798611 -.00008932  00000+0 -26397-3 0  2575
2 62445  53.1578 173.6813 0001461  85.2282 331.9094 15.34385275    13

Sigue STARLINK-32683 en tiempo real con AllMySat

Download on the App Store